Wind_Speed
33 36 38 38 38 37 38 38 37 35 34 32 28 24 23 24 23 21 20 19 19 19 19 19 20 20 21 20 19 18 18 19 18 17 16 15 14 13
32 34 36 38 38 38 37 36 34 34 33 32 27 22 22 22 22 21 20 19 19 20 20 20 20 20 20 21 20 20 19 18 17 16 14 14 13 13
29 33 35 36 37 37 36 34 32 29 27 26 24 21 22 22 22 21 20 19 19 19 19 19 19 19 19 20 20 19 19 18 16 14 14 16 16 15
19 20 24 28 31 33 33 32 30 26 23 21 22 21 21 21 21 20 18 18 19 19 19 19 19 19 19 20 19 19 19 17 16 16 17 19 19 18
18 17 17 18 19 21 23 24 22 20 18 19 21 21 21 21 20 19 18 18 19 20 20 19 20 19 19 18 18 18 18 17 17 18 19 21 21 20
20 19 18 17 16 16 16 16 17 17 19 21 23 22 22 21 20 20 19 19 20 20 21 20 19 18 18 17 16 17 18 18 18 19 21 23 23 22
24 24 23 22 21 20 19 19 20 21 22 24 25 25 24 23 22 22 21 21 21 22 22 22 21 19 17 16 16 18 19 20 21 22 23 24 24 23
26 26 26 27 27 27 26 25 25 25 26 26 27 28 27 26 25 25 25 24 24 24 24 23 22 20 18 18 18 18 21 23 25 26 26 27 27 26
26 26 26 27 29 30 30 30 31 31 31 30 30 30 30 30 29 28 28 28 27 27 26 25 24 22 21 20 20 21 21 24 28 30 31 31 31 30
26 26 26 26 27 29 30 31 32 33 33 33 33 33 33 32 32 31 31 31 32 31 30 29 28 26 25 23 23 24 24 25 28 32 35 36 35 34
27 27 26 26 26 27 29 32 33 34 35 35 36 36 36 36 36 35 35 35 35 35 35 33 33 32 31 28 27 27 27 27 27 31 35 39 39 38
26 26 25 25 25 25 27 30 32 34 35 37 38 38 39 39 39 39 39 38 39 38 39 39 38 37 35 33 32 30 30 30 29 29 33 39 42 40
23 24 24 25 25 26 26 27 29 31 33 36 38 39 40 41 41 41 42 42 42 42 42 42 42 41 39 37 35 33 32 32 31 30 31 36 42 42
25 25 25 26 26 27 26 27 27 28 29 32 34 37 38 39 40 40 41 42 43 43 44 44 44 43 42 40 38 36 34 32 32 32 32 35 40 42
29 29 29 29 29 29 29 28 28 28 28 29 31 33 35 38 39 40 41 40 41 41 41 42 43 43 42 40 38 36 33 32 32 33 34 35 38 40
30 30 31 31 31 31 31 30 30 30 29 29 28 29 30 32 35 38 39 39 40 40 39 39 39 40 40 39 37 34 32 31 31 32 33 33 33 35
30 30 30 30 30 30 31 31 31 32 32 31 30 29 28 28 29 30 33 35 38 39 39 38 37 36 36 36 36 35 34 32 31 30 31 32 34 36
27 27 28 29 29 30 30 31 32 33 34 35 34 34 33 31 29 27 26 27 29 33 36 37 37 37 36 36 36 37 37 34 33 32 31 31 33 35
25 26 27 28 29 29 30 31 32 33 35 36 37 38 38 37 35 33 31 28 26 25 27 30 32 34 35 36 37 38 38 39 37 36 35 33 33 34
26 28 29 30 30 30 31 32 33 34 35 37 38 39 40 41 41 39 38 35 33 30 27 26 26 27 30 32 34 36 40 41 41 41 41 38 36 36
29 30 30 29 28 28 29 30 31 32 33 35 37 39 40 41 42 42 42 42 40 38 35 32 29 28 27 28 28 30 33 37 40 41 41 40 38 37
30 30 29 27 26 27 28 28 28 29 30 33 35 37 39 40 42 43 44 44 44 44 42 39 36 34 32 30 28 27 27 29 32 35 37 37 37 36
29 29 28 27 27 27 27 27 27 28 28 29 30 32 35 37 39 41 43 45 46 47 47 46 44 42 40 38 35 31 29 27 27 29 31 33 34 35
Wind_Direction
263 262 261 263 267 267 269 268 264 257 253 250 245 246 252 257 262 267 269 269 268 267 264 262 260 257 254 253 255 258 262 267 275 279 279 277 266 249
263 261 262 263 265 267 268 265 256 250 247 244 241 245 250 254 257 260 264 266 266 265 263 261 260 258 256 255 255 260 265 269 275 274 270 261 246 228
267 262 260 261 262 263 263 254 244 240 239 239 241 246 250 252 253 255 260 262 263 266 264 262 260 259 260 258 256 259 262 266 267 261 255 242 229 218
292 282 271 266 264 260 252 241 236 237 238 241 244 248 252 253 252 254 258 261 262 265 265 262 261 262 262 261 259 257 257 258 254 248 243 232 221 216
298 298 292 281 269 260 252 245 242 240 242 247 250 252 254 255 255 256 258 262 263 264 265 265 263 263 262 261 260 258 256 252 246 242 240 228 220 218
285 286 285 281 278 274 269 264 260 257 256 255 255 254 254 254 256 258 260 261 263 264 265 265 264 264 261 258 258 257 253 248 244 240 236 228 223 222
276 275 274 273 271 268 265 265 263 261 259 258 256 255 254 254 254 257 260 261 262 263 263 264 262 261 258 252 251 251 248 243 240 238 235 230 228 228
275 272 269 268 267 266 264 262 260 260 259 257 256 256 256 254 254 255 259 261 261 259 260 261 259 257 254 252 252 252 247 240 236 236 234 231 231 233
277 273 271 269 266 264 263 261 260 259 259 257 255 254 254 253 252 252 254 257 257 257 256 256 255 253 252 252 253 253 252 248 240 235 233 233 234 238
282 279 275 271 266 263 260 258 257 256 255 254 253 252 251 250 250 249 249 250 252 253 251 252 252 251 249 250 251 253 254 254 252 245 237 234 236 240
290 287 284 279 272 266 261 258 255 252 250 249 249 248 247 247 247 247 246 246 246 248 248 250 251 251 251 252 253 253 253 256 259 255 245 235 234 238
292 292 290 286 281 275 269 263 258 254 251 249 248 247 246 246 246 246 245 244 244 245 247 248 250 252 252 252 253 254 253 253 255 259 253 239 233 234
293 294 293 292 289 285 280 275 269 262 256 251 249 248 247 247 248 247 247 246 245 245 246 247 248 250 252 253 253 253 252 252 252 255 255 244 233 231
294 293 292 291 289 287 285 282 277 272 266 260 254 251 250 249 249 250 249 248 248 247 246 246 247 248 250 252 253 252 252 252 250 251 250 246 237 232
294 293 292 289 287 284 282 280 277 275 273 269 264 258 253 250 250 250 251 249 249 247 247 248 249 249 249 250 250 250 250 249 248 248 247 247 239 233
294 293 291 288 285 282 280 277 274 272 271 269 268 264 259 256 253 252 251 249 247 246 246 247 249 248 247 247 247 245 244 245 245 244 244 239 232 228
295 293 291 290 287 283 280 277 274 271 268 264 263 262 261 260 259 257 254 252 249 246 246 247 247 245 243 243 239 236 235 235 237 237 235 230 225 223
301 300 298 295 292 288 285 281 276 272 267 263 260 258 258 258 258 257 257 255 253 249 246 246 245 245 242 240 237 234 230 226 226 225 222 220 217 217
311 309 306 303 300 295 291 286 281 276 271 266 262 259 257 256 256 255 256 256 256 254 249 246 245 244 244 243 242 241 240 237 233 231 230 228 224 222
312 310 307 304 302 299 295 291 285 280 274 269 265 262 259 256 255 253 252 251 251 251 250 248 244 244 244 244 245 246 246 246 245 245 244 243 239 235
313 311 308 305 303 302 300 297 291 284 278 273 269 265 261 258 255 253 251 249 247 246 245 243 242 241 241 244 245 246 247 248 249 249 249 249 248 245
318 317 314 310 308 306 306 305 301 294 285 278 273 269 265 261 257 253 250 248 246 243 241 239 237 236 235 236 239 243 245 247 248 249 249 249 248 246
323 320 318 316 314 312 310 310 310 305 298 290 282 275 270 265 261 256 251 248 245 243 241 238 235 234 232 233 234 234 237 241 245 248 248 247 245 244
Height
5780 5781 5781 5782 5782 5782 5783 5783 5784 5784 5785 5786 5787 5789 5789 5790 5790 5791 5790 5789 5789 5789 5789 5789 5790 5790 5789 5789 5789 5790 5790 5791 5791 5791 5791 5791 5791 5792
5771 5771 5772 5772 5772 5773 5773 5773 5773 5774 5775 5776 5779 5781 5782 5783 5783 5784 5783 5783 5783 5783 5783 5783 5784 5784 5783 5783 5784 5785 5785 5786 5786 5786 5786 5788 5789 5790
5763 5763 5762 5762 5762 5763 5763 5763 5764 5765 5766 5767 5770 5773 5774 5776 5776 5777 5777 5777 5777 5777 5777 5778 5778 5778 5778 5778 5778 5779 5780 5781 5781 5782 5783 5785 5787 5788
5756 5755 5754 5753 5754 5754 5754 5753 5754 5755 5758 5760 5762 5765 5767 5768 5769 5770 5770 5771 5771 5772 5772 5772 5772 5772 5772 5772 5773 5773 5774 5775 5777 5778 5780 5782 5783 5785
5752 5751 5749 5748 5747 5747 5747 5746 5747 5748 5751 5754 5756 5758 5760 5762 5763 5763 5764 5765 5765 5765 5766 5766 5766 5766 5766 5767 5767 5768 5769 5771 5772 5774 5777 5779 5780 5782
5747 5746 5745 5744 5743 5743 5742 5742 5743 5744 5747 5749 5750 5752 5754 5755 5756 5757 5757 5758 5759 5759 5759 5760 5760 5760 5761 5761 5762 5763 5765 5766 5768 5771 5773 5776 5777 5778
5740 5740 5739 5738 5738 5738 5738 5738 5739 5740 5741 5743 5744 5745 5746 5748 5749 5750 5751 5751 5752 5753 5753 5754 5754 5755 5755 5755 5756 5758 5760 5762 5764 5767 5769 5772 5773 5774
5731 5731 5731 5731 5731 5731 5731 5732 5733 5733 5734 5735 5736 5737 5738 5740 5741 5742 5743 5744 5746 5747 5747 5747 5748 5749 5750 5750 5751 5752 5754 5756 5758 5761 5764 5767 5769 5770
5721 5721 5721 5721 5721 5722 5722 5723 5724 5725 5726 5727 5727 5728 5729 5731 5732 5734 5735 5736 5738 5739 5740 5740 5741 5742 5744 5745 5745 5746 5748 5749 5751 5754 5757 5760 5762 5764
5711 5711 5710 5710 5710 5710 5711 5712 5712 5714 5715 5715 5716 5717 5719 5720 5722 5724 5726 5728 5729 5731 5732 5733 5734 5735 5736 5737 5738 5740 5740 5741 5743 5745 5748 5751 5754 5757
5702 5701 5700 5700 5699 5700 5700 5700 5701 5702 5703 5704 5705 5706 5707 5709 5711 5713 5715 5717 5719 5721 5723 5725 5726 5727 5728 5729 5730 5731 5733 5734 5734 5736 5738 5741 5744 5748
5693 5692 5691 5690 5690 5689 5689 5690 5690 5690 5691 5692 5693 5694 5696 5697 5699 5701 5703 5705 5707 5710 5712 5715 5716 5718 5719 5720 5721 5722 5724 5725 5726 5726 5728 5730 5734 5738
5686 5684 5683 5682 5681 5680 5679 5679 5679 5679 5679 5680 5681 5683 5684 5686 5687 5689 5692 5694 5696 5698 5701 5703 5705 5707 5709 5710 5711 5712 5714 5715 5716 5717 5718 5720 5724 5728
5678 5677 5676 5674 5673 5672 5671 5670 5669 5669 5669 5669 5670 5671 5672 5674 5675 5677 5680 5682 5684 5686 5688 5691 5693 5695 5698 5699 5701 5702 5704 5705 5706 5707 5709 5710 5713 5717
5670 5668 5667 5666 5665 5663 5662 5661 5660 5660 5659 5659 5659 5660 5661 5662 5663 5665 5667 5669 5672 5674 5676 5678 5680 5683 5685 5688 5690 5691 5693 5695 5696 5697 5698 5700 5702 5705
5662 5659 5658 5656 5655 5653 5652 5652 5651 5651 5650 5650 5650 5650 5650 5651 5652 5653 5655 5657 5659 5661 5664 5666 5668 5671 5673 5676 5678 5681 5683 5685 5686 5687 5688 5690 5691 5694
5653 5650 5648 5646 5644 5643 5641 5640 5640 5640 5640 5640 5640 5640 5640 5641 5641 5642 5643 5644 5647 5649 5651 5654 5656 5659 5661 5664 5666 5669 5672 5674 5677 5678 5680 5680 5682 5684
5644 5641 5639 5636 5634 5632 5630 5629 5628 5627 5627 5628 5628 5629 5630 5630 5631 5632 5633 5634 5635 5637 5639 5642 5645 5648 5650 5653 5655 5657 5660 5663 5666 5669 5671 5672 5673 5675
5636 5633 5630 5628 5625 5622 5620 5618 5616 5615 5614 5614 5614 5615 5617 5618 5620 5622 5623 5625 5626 5627 5628 5630 5632 5635 5639 5641 5644 5646 5648 5650 5653 5657 5660 5663 5665 5667
5630 5627 5623 5620 5616 5613 5610 5607 5605 5603 5601 5600 5600 5601 5602 5604 5606 5609 5611 5613 5615 5617 5619 5621 5622 5624 5627 5630 5632 5635 5637 5639 5642 5645 5648 5651 5655 5658
5623 5619 5615 5611 5608 5604 5601 5597 5594 5592 5589 5588 5587 5587 5587 5589 5591 5594 5597 5600 5603 5605 5608 5611 5613 5615 5617 5619 5622 5624 5626 5628 5631 5633 5636 5639 5643 5646
5615 5610 5606 5603 5599 5595 5592 5588 5584 5581 5578 5576 5574 5574 5573 5574 5576 5578 5581 5584 5588 5591 5595 5598 5602 5605 5608 5610 5612 5614 5616 5618 5620 5623 5626 5629 5632 5635
5609 5603 5599 5595 5591 5587 5583 5580 5576 5572 5568 5565 5563 5561 5561 5561 5562 5563 5566 5569 5572 5575 5579 5584 5588 5592 5595 5599 5602 5605 5607 5609 5611 5613 5616 5619 5623 5626